Theta_e
315 315 315 316 316 316 316 316 316 317 318 318 318 316 315 315 316 308 303 306 304 299 301 306 307 303 303 302 299 302 301 302 300 296 296 295 295 297 295 296 295 294 293 293 294 292 291 311 310 303 308 313 317 318
315 314 314 313 313 314 316 316 316 316 317 318 317 316 315 314 315 310 300 306 307 301 302 307 310 312 309 308 302 300 300 299 301 298 298 297 296 295 293 291 298 294 296 294 296 297 306 312 311 313 314 312 314 314
314 314 313 313 314 313 313 314 315 316 316 318 318 316 315 314 314 311 301 301 301 299 301 300 303 308 308 310 310 300 300 303 301 303 300 298 295 296 292 293 295 298 300 296 297 300 307 312 314 316 317 316 317 318
313 313 313 313 314 313 313 313 314 315 316 317 317 316 314 314 313 312 301 301 300 298 295 299 308 305 308 306 310 310 305 304 303 302 298 297 296 300 295 297 296 299 299 297 297 302 305 309 308 310 312 315 315 314
312 312 313 313 314 314 313 313 314 315 316 316 317 315 314 313 311 308 302 302 303 301 295 297 303 305 305 304 306 309 304 302 301 299 297 296 298 298 297 297 295 300 298 296 296 301 303 304 308 312 311 310 311 310
310 311 312 312 313 314 314 314 315 315 315 315 316 314 313 311 310 302 300 305 304 302 297 292 298 301 305 306 304 304 304 303 303 301 299 299 302 300 295 293 299 301 303 304 303 306 306 308 311 313 309 310 311 310
310 311 311 312 313 313 314 314 314 314 314 315 315 313 311 310 302 297 299 306 306 301 296 292 293 301 304 303 304 304 305 304 304 302 300 300 301 301 296 295 300 303 304 306 308 307 305 308 306 310 310 311 312 312
310 310 311 312 312 313 314 314 314 314 314 315 313 311 310 309 306 300 303 307 304 298 298 291 293 297 304 300 299 304 302 305 303 301 301 299 300 299 296 300 302 305 307 306 308 309 307 308 308 309 312 312 311 311
309 310 311 311 312 313 314 314 314 314 314 313 311 310 303 300 297 303 313 309 303 302 294 293 291 291 302 300 304 305 305 299 301 299 299 301 297 296 300 301 302 305 306 306 307 308 309 308 308 310 311 312 311 311
309 309 310 311 312 312 313 313 313 313 312 309 303 300 298 302 313 313 305 304 304 299 297 293 295 292 296 297 303 303 303 297 295 298 303 299 297 301 303 306 306 306 308 309 305 305 307 308 309 310 311 313 313 313
309 309 310 310 311 312 313 313 313 311 308 302 296 296 304 312 305 300 296 294 296 296 296 296 295 293 298 294 301 302 296 296 294 298 299 297 295 302 307 306 308 309 309 310 310 311 311 312 312 312 313 314 315 316
308 309 310 310 311 312 313 312 312 306 303 303 302 303 304 304 301 296 295 298 296 294 298 300 300 299 298 303 299 299 295 296 293 302 300 293 297 305 306 308 309 310 311 311 313 312 314 314 314 314 314 314 314 315
308 309 309 310 310 312 312 312 310 309 308 305 302 300 298 299 291 292 288 291 292 301 303 304 303 306 303 302 298 297 294 294 300 295 294 297 302 307 310 310 309 311 311 312 312 314 315 315 317 317 316 317 317 317
308 308 309 309 310 311 312 312 310 308 304 299 297 289 294 292 292 293 293 294 301 306 306 305 304 304 306 303 303 298 297 297 293 293 294 300 304 310 308 309 308 309 310 311 312 314 314 315 316 316 318 317 319 318
308 308 309 309 310 312 312 311 309 307 301 298 299 290 292 295 296 297 299 300 303 305 305 300 300 300 302 302 303 301 297 294 295 296 300 305 309 306 307 307 308 308 309 311 313 312 313 314 315 315 318 317 317 318
308 308 307 310 311 312 310 308 306 305 301 299 298 293 295 294 294 296 297 298 300 301 304 301 296 296 297 300 299 298 296 293 298 304 307 310 306 306 306 308 309 309 309 311 313 313 314 314 315 317 319 317 317 316
308 306 310 311 311 310 308 305 303 298 298 298 296 296 296 295 295 296 297 298 303 303 299 300 298 295 298 296 298 303 299 302 305 308 309 306 305 307 308 309 309 308 309 310 313 315 315 316 318 316 314 319 317 315
306 309 311 310 308 307 305 304 301 299 295 298 293 296 296 297 297 297 298 300 302 301 302 297 299 297 295 294 296 303 305 307 308 309 309 309 308 309 309 308 308 308 309 311 314 315 316 317 316 316 317 318 317 314
308 310 309 309 307 303 300 301 303 296 297 296 296 297 297 297 298 299 299 299 301 304 304 302 298 294 295 298 299 302 306 308 306 309 308 309 309 309 309 309 309 309 310 310 313 314 315 317 317 318 319 318 314 314
310 309 308 309 308 301 298 298 303 297 295 296 296 295 295 296 298 297 298 298 299 300 300 298 296 298 300 306 307 305 308 307 304 304 306 307 308 308 308 309 309 310 310 312 315 309 315 315 318 318 317 316 317 313
307 307 308 307 304 303 302 300 296 296 296 294 296 296 296 296 296 296 296 297 296 296 295 298 299 302 302 303 306 308 310 306 306 307 307 306 308 308 307 309 309 309 310 313 313 313 312 313 315 317 316 316 319 318
305 308 304 305 301 303 300 301 299 301 296 295 294 295 294 294 297 300 300 296 295 297 298 299 300 302 301 301 304 306 308 310 311 309 304 305 306 307 308 309 308 308 308 310 311 312 313 314 313 315 316 316 314 316
307 305 302 301 298 296 295 299 295 295 293 297 298 297 298 301 304 307 299 299 300 302 302 302 303 303 303 305 308 310 311 311 310 312 310 309 308 308 309 309 310 308 308 309 310 311 312 307 312 313 315 315 316 315
307 301 298 297 296 290 296 295 296 297 300 299 298 299 301 303 302 301 295 298 302 304 303 306 305 305 307 308 307 308 310 311 313 315 313 309 309 309 310 310 310 310 311 311 310 310 312 312 308 313 313 313 313 313
294 295 295 288 296 294 295 296 296 298 297 299 299 299 301 300 297 299 299 303 307 305 309 312 311 307 307 309 310 312 315 315 314 313 314 310 308 309 309 309 310 310 311 310 309 309 309 309 309 310 310 311 311 310
287 293 291 294 294 295 296 296 297 297 298 298 298 298 302 301 299 298 301 305 306 309 310 311 310 307 305 308 310 311 313 314 315 311 310 310 309 309 307 307 307 308 310 310 309 308 307 306 306 306 308 308 301 309
287 292 295 298 298 299 299 300 299 297 297 294 296 301 300 296 297 301 306 308 308 310 312 314 311 309 307 308 311 314 313 309 313 310 308 310 310 310 310 307 305 308 311 312 311 309 307 307 306 307 307 307 308 307
297 297 295 297 296 300 299 298 295 294 296 298 301 298 297 300 300 305 306 307 309 309 310 310 310 310 309 310 310 307 304 304 305 304 305 304 304 305 306 306 306 302 309 309 309 309 308 309 309 309 308 306 305 306
298 301 298 297 298 299 298 296 296 298 302 301 297 298 301 306 309 305 306 308 310 311 309 306 306 308 309 313 310 306 306 306 304 302 300 299 300 303 304 305 306 307 308 308 301 304 309 309 308 308 307 306 306 306
297 299 296 298 297 294 297 300 300 305 309 306 308 305 304 306 310 312 310 310 308 308 310 311 311 310 308 308 305 305 306 306 307 306 304 302 303 304 304 306 306 306 307 307 306 306 302 306 305 307 306 305 305 305
300 299 299 300 297 300 303 305 307 309 307 308 311 305 305 308 312 312 312 315 314 311 312 310 309 307 306 307 306 306 305 306 307 308 308 311 306 305 307 308 308 308 308 307 307 307 307 306 306 306 306 305 305 304
301 302 300 298 302 304 306 304 303 304 304 304 307 307 308 308 307 307 308 308 310 310 308 308 308 308 307 308 309 307 301 309 309 310 309 310 309 309 309 312 312 312 312 311 311 308 310 309 308 308 307 304 304 305
302 303 302 300 300 303 304 303 301 301 303 301 302 304 307 306 303 309 312 315 311 308 307 307 308 310 313 313 312 308 301 302 297 294 295 298 300 304 308 312 315 317 313 313 310 309 308 307 306 309 308 306 305 305
Wind_Speed
10 7 8 9 10 10 9 9 9 10 10 10 10 11 13 14 15 6 4 3 3 2 7 5 4 4 2 2 3 4 5 4 4 4 2 2 2 2 3 3 2 2 1 2 1 1 2 5 4 6 4 2 2 3
10 8 7 11 12 11 9 9 9 9 10 9 9 9 11 11 12 8 2 3 1 3 7 4 8 11 9 8 4 2 3 2 4 4 1 0 2 2 2 3 4 2 4 3 5 5 4 4 2 1 1 3 4 3
10 9 8 11 10 11 11 9 9 9 9 9 8 8 9 9 9 6 2 3 3 2 6 4 5 4 4 11 6 4 3 3 1 4 4 1 2 3 2 5 1 5 2 0 4 2 3 1 2 1 3 5 6 7
9 9 9 10 10 9 10 10 10 10 10 8 8 7 8 9 8 6 1 1 2 1 2 9 4 5 3 4 12 12 3 3 4 3 2 2 2 3 4 3 4 5 3 2 4 6 6 6 3 3 4 4 6 7
8 9 10 10 11 10 10 10 10 10 9 8 8 6 8 9 10 5 3 3 2 3 3 7 10 6 6 4 9 12 5 4 2 2 2 4 3 1 2 1 3 5 6 5 6 6 6 8 7 4 4 5 6 5
10 10 10 10 10 10 11 10 9 8 8 8 7 6 6 8 10 3 3 1 0 2 1 6 5 7 7 6 5 8 6 4 3 5 4 3 4 3 2 3 6 4 5 8 7 7 8 8 7 6 4 7 12 12
10 10 10 10 10 10 10 10 9 8 8 7 5 5 7 7 1 2 4 3 4 2 2 6 7 6 6 4 3 2 2 2 4 2 3 3 3 4 2 8 4 7 8 7 7 2 6 6 7 7 9 12 12 14
10 10 10 10 11 10 10 9 8 8 8 6 4 6 9 8 5 4 3 8 6 2 2 2 6 6 5 3 2 2 2 2 1 2 1 2 2 1 4 8 5 5 4 3 6 6 8 9 10 14 12 10 12 13
10 10 10 10 10 9 9 8 8 7 5 2 4 7 3 2 1 3 4 11 2 4 2 1 2 5 6 3 2 2 2 1 1 1 3 4 1 5 8 4 4 5 3 5 7 8 10 11 15 15 14 14 14 14
11 10 10 10 10 9 9 8 7 5 4 1 3 2 3 3 5 3 3 2 1 2 2 3 1 5 2 3 3 2 3 0 2 5 2 2 5 5 5 5 4 4 6 5 6 12 13 15 16 16 17 16 15 15
11 11 10 10 10 10 9 8 7 8 4 1 1 3 3 4 2 2 1 1 1 3 3 5 6 3 2 2 3 1 1 1 1 5 2 2 4 4 4 4 5 7 7 8 7 12 14 16 18 18 17 17 16 16
11 11 10 10 10 9 10 10 11 4 3 3 3 1 2 0 1 2 3 2 4 5 3 4 5 6 4 2 2 2 1 2 5 3 2 3 5 4 4 7 7 7 7 9 10 13 16 18 17 17 18 18 18 17
11 11 11 10 10 9 11 11 14 2 3 0 1 1 2 1 1 5 5 3 3 4 3 3 1 1 0 3 3 2 1 5 2 1 4 4 4 5 6 5 8 7 8 8 13 14 16 17 18 17 16 17 19 17
12 11 12 11 11 10 12 12 14 4 2 2 3 2 5 4 5 6 5 4 4 2 2 2 1 2 2 3 2 2 4 2 3 3 3 3 5 6 6 4 4 7 8 10 14 15 17 16 16 18 15 14 16 15
11 11 11 10 12 12 13 15 12 1 2 4 3 5 6 5 4 3 4 4 4 2 2 1 2 2 0 2 4 2 3 4 5 3 3 4 6 6 6 6 7 7 8 9 13 13 15 16 16 18 15 14 11 7
10 8 7 11 13 13 14 14 3 1 2 2 4 3 3 0 4 2 3 4 3 2 3 3 1 2 5 3 4 6 3 3 2 3 4 5 7 7 6 7 7 7 8 11 13 14 14 14 15 15 14 11 9 6
11 4 11 15 14 20 18 4 3 4 4 3 4 3 3 3 5 4 2 3 0 2 2 2 2 6 0 3 4 1 1 3 4 7 6 7 8 8 7 6 7 7 8 11 13 14 13 12 11 10 12 12 8 6
4 4 15 21 15 8 2 1 2 4 6 4 3 3 3 3 3 4 3 2 1 2 3 5 2 2 4 2 1 3 5 4 4 7 6 9 7 8 6 7 7 7 9 10 11 12 11 11 9 7 8 7 4 4
5 7 24 22 8 4 4 3 2 3 6 2 4 3 3 4 4 4 3 3 3 3 2 2 4 4 4 4 4 4 4 4 5 8 6 9 7 7 7 6 6 6 8 9 11 9 9 10 8 6 5 2 1 1
13 21 19 8 1 3 4 2 2 3 3 4 3 3 4 5 4 3 4 4 4 3 4 5 5 4 4 4 5 4 4 4 2 5 7 6 4 5 5 4 4 5 5 8 8 9 9 8 7 7 7 6 4 3
10 6 7 2 1 1 1 3 3 4 3 3 3 2 4 1 3 4 4 4 3 4 4 4 5 6 6 5 4 3 6 4 5 5 5 4 4 3 4 3 2 3 4 5 8 9 10 9 7 7 8 7 4 4
4 6 3 1 1 2 2 3 3 2 3 3 2 3 3 3 4 4 3 3 4 5 5 5 6 6 5 6 7 6 7 5 6 4 3 2 3 4 4 2 1 3 4 4 5 7 8 8 9 9 8 8 10 8
8 2 2 1 1 1 5 1 1 2 1 3 1 3 3 3 3 2 2 3 4 5 6 6 6 6 6 6 3 4 3 4 4 2 1 1 2 3 3 3 1 3 3 4 4 5 6 10 10 10 10 11 10 11
2 3 3 3 4 4 1 2 2 2 2 2 2 3 3 3 1 0 3 3 4 3 1 3 4 2 1 2 1 2 3 2 4 3 2 4 3 4 4 3 2 2 2 2 4 4 6 7 9 9 11 12 12 13
3 2 3 3 2 2 3 2 3 2 3 4 4 3 2 2 1 3 3 3 2 3 2 1 2 4 4 2 3 2 1 2 8 1 3 2 2 3 4 4 4 3 3 4 5 5 5 5 6 7 9 10 13 15
2 3 6 5 2 3 3 2 4 6 4 3 2 3 2 2 2 3 2 2 2 2 2 3 3 3 3 4 4 2 1 1 3 3 2 3 3 4 3 4 4 4 3 3 5 5 6 5 7 9 9 11 11 11
1 3 4 3 2 2 3 2 2 1 2 1 1 3 1 2 2 3 2 1 2 2 3 1 3 3 5 3 2 3 2 4 5 4 3 3 3 2 4 4 3 3 1 3 4 5 6 6 6 7 7 7 7 7
3 2 4 3 3 3 3 2 1 2 2 2 0 2 2 1 2 3 3 2 2 2 2 4 4 3 2 2 3 3 5 5 6 5 5 5 4 3 2 2 3 8 5 4 4 4 4 5 6 6 7 7 6 6
3 3 3 3 3 3 3 3 2 3 1 1 1 2 3 3 2 1 2 2 3 4 4 3 1 1 3 3 1 2 4 5 8 8 6 2 2 3 1 2 3 4 4 4 4 4 6 6 6 6 6 6 4 5
4 3 2 2 2 3 3 4 2 2 1 1 2 2 2 3 4 2 2 3 2 2 3 3 3 2 0 3 2 1 3 1 4 6 5 4 5 3 3 5 4 4 4 5 5 5 8 5 5 4 5 5 5 5
1 2 1 2 2 3 4 3 2 2 1 1 2 1 3 4 5 3 3 4 5 3 2 2 2 2 3 3 4 4 2 2 5 4 3 3 5 5 5 5 5 4 4 5 5 5 5 2 3 4 5 6 6 5
1 3 2 1 2 2 3 2 1 1 2 1 2 1 2 4 4 4 3 2 3 3 5 3 2 5 4 2 2 2 2 4 3 2 4 5 5 6 5 3 3 3 4 4 4 4 6 6 5 4 4 6 6 6
1 1 1 1 1 1 0 2 1 1 1 1 2 2 2 3 3 4 3 6 2 4 4 3 2 2 4 5 6 5 6 5 6 6 5 6 6 5 4 6 7 7 8 6 4 3 5 6 4 6 6 6 6 6
Wind_Direction
267 278 300 305 302 300 303 309 315 320 325 332 347 354 357 1 1 20 285 334 81 245 273 229 222 198 289 153 176 286 13 345 22 58 117 243 214 278 355 287 319 106 58 317 355 295 227 335 347 77 234 293 212 255
257 262 276 295 297 298 295 299 307 312 319 324 341 345 347 353 1 13 330 333 2 182 250 263 240 244 213 197 128 319 192 231 209 85 352 120 319 6 161 289 340 345 163 219 161 230 263 318 19 345 85 290 294 273
254 266 270 285 275 288 288 294 300 299 307 315 321 326 337 341 355 22 278 300 8 352 299 340 251 275 264 227 181 162 276 208 191 172 157 199 260 126 228 248 297 320 148 300 33 311 343 46 71 302 276 259 276 284
261 265 263 274 262 267 279 285 289 293 293 302 310 318 326 328 334 352 301 231 110 238 312 283 325 295 264 189 187 207 176 62 87 82 134 167 195 173 221 230 181 204 13 207 255 275 300 247 270 276 275 282 307 312
261 265 266 266 268 259 268 270 274 279 287 300 302 306 319 324 323 305 207 233 193 127 259 282 309 271 300 222 205 204 175 134 171 80 100 230 237 132 249 38 245 189 199 169 230 225 200 242 264 285 282 301 289 282
261 262 262 264 265 264 264 265 264 271 284 294 293 297 315 326 341 5 20 357 110 98 7 313 295 295 313 284 167 159 163 151 142 146 211 248 251 131 212 247 255 229 216 186 223 229 215 244 266 257 251 293 295 294
257 259 260 262 262 262 260 262 265 271 281 285 276 287 301 317 23 155 204 219 157 33 44 311 312 290 303 335 38 90 84 158 134 173 210 206 253 136 171 259 232 236 237 248 246 238 278 240 241 241 259 269 269 273
253 259 259 260 262 258 256 256 255 267 273 273 265 293 298 297 281 299 255 249 154 117 76 291 278 329 356 344 342 360 97 49 1 209 40 194 1 94 258 248 284 294 317 266 260 235 248 270 275 275 276 274 276 277
254 257 257 258 263 257 250 244 245 253 265 249 302 306 342 66 294 256 81 121 90 129 198 184 269 279 349 334 280 32 77 27 313 212 246 112 197 225 236 256 279 271 245 275 292 280 279 269 269 275 278 276 273 267
253 253 254 255 255 252 244 226 233 231 157 47 38 25 311 228 243 105 15 34 38 335 63 226 227 265 38 346 323 9 21 230 326 250 115 176 249 263 252 225 223 262 276 296 306 306 305 295 291 285 278 275 267 263
253 250 249 249 252 249 227 210 200 136 73 40 117 235 254 306 59 37 265 154 164 237 212 233 193 230 274 160 252 50 232 303 309 268 159 252 275 256 228 232 255 274 274 270 251 269 278 279 286 288 284 278 272 265
255 249 244 242 246 244 213 195 170 154 188 198 196 263 303 248 174 236 239 198 194 235 215 206 213 192 268 150 114 348 248 37 250 319 280 271 256 252 243 255 283 291 283 281 279 283 291 293 290 287 283 278 273 270
255 251 240 238 244 236 206 188 174 145 123 45 232 252 96 217 230 209 209 239 239 211 216 226 233 222 126 54 67 48 344 238 330 255 233 229 254 266 259 277 290 283 280 276 294 298 302 297 295 290 285 276 275 270
246 248 233 228 239 231 201 181 164 153 209 197 171 264 204 208 234 201 201 205 239 243 184 236 157 125 121 47 113 295 244 345 282 268 254 249 249 271 288 268 277 285 286 292 299 306 305 305 304 301 291 285 282 262
245 247 229 234 234 210 186 166 143 167 150 212 164 229 222 228 254 244 233 276 260 241 141 61 21 97 238 204 197 245 249 237 218 243 245 273 282 289 291 295 289 291 290 299 305 304 303 307 302 303 299 304 289 253
247 242 218 203 203 185 161 127 87 105 232 223 228 258 248 174 278 286 254 249 235 155 98 70 144 220 233 201 187 213 212 253 292 280 282 300 298 293 285 286 282 279 288 294 296 298 302 305 304 302 305 304 303 242
210 238 183 177 171 143 135 105 122 207 211 227 246 225 233 259 234 246 234 263 298 94 186 145 250 224 280 228 222 143 101 250 267 296 297 277 273 274 280 284 289 296 302 300 304 312 310 301 302 321 328 331 329 309
227 187 165 142 125 120 81 145 152 191 225 231 242 247 206 220 232 267 248 244 156 168 128 207 162 225 244 263 303 196 224 248 273 272 283 286 281 278 278 278 296 304 297 305 311 311 313 320 324 317 320 321 310 343
166 168 149 142 138 121 134 161 206 224 226 230 247 234 217 240 232 226 221 234 213 191 161 157 231 209 228 215 204 238 245 227 239 279 276 283 277 280 283 296 301 299 311 319 319 322 320 317 309 313 310 299 306 15
155 151 141 116 57 110 124 184 200 235 233 226 224 240 211 212 216 205 220 220 175 177 190 207 198 215 198 211 224 233 251 243 218 286 282 289 295 314 308 303 297 314 328 330 334 333 343 344 355 350 343 323 148 138
103 110 77 71 73 34 200 164 190 212 230 226 236 206 253 284 239 214 226 169 155 202 225 209 211 240 230 234 231 251 267 215 226 213 257 297 318 324 318 349 5 1 353 348 353 348 356 355 344 356 6 8 67 85
95 111 98 51 292 219 242 212 199 228 177 242 294 200 247 255 240 223 167 150 214 215 195 190 213 221 244 250 247 213 242 253 247 256 258 246 336 343 342 329 336 13 5 350 352 356 354 355 359 13 17 31 47 54
100 74 94 148 1 69 262 75 189 231 226 256 226 235 234 229 235 120 250 225 248 224 204 200 206 198 210 248 239 265 244 241 249 161 116 63 22 359 4 20 76 54 14 347 345 6 4 355 10 18 36 40 47 54
122 127 163 195 188 235 265 233 215 255 248 251 241 260 235 224 94 157 248 255 251 291 280 205 163 174 171 125 72 298 286 235 113 68 44 78 61 17 23 48 61 26 355 334 6 5 16 22 17 29 35 47 49 57
104 218 139 244 222 233 224 228 201 221 258 234 238 248 247 105 223 217 230 273 328 333 308 193 171 196 180 135 39 328 262 103 96 100 302 100 133 77 43 38 32 0 353 53 31 31 28 26 33 45 47 56 66 65
150 217 168 201 226 204 227 229 208 207 229 238 252 314 359 348 301 287 279 319 316 289 311 208 194 98 79 118 94 328 86 133 133 131 221 161 123 110 92 69 49 4 357 61 61 54 48 40 40 44 47 52 54 74
244 243 228 231 232 256 262 238 271 257 270 300 338 350 57 326 281 271 275 259 222 272 304 47 80 90 141 162 247 268 273 151 167 180 151 155 163 176 134 137 153 215 141 76 75 81 75 55 46 45 47 39 41 64
256 260 203 198 205 201 248 269 207 234 255 246 335 225 243 242 270 255 207 226 238 311 45 71 118 109 118 244 284 2 55 75 85 80 68 45 34 21 64 92 75 122 110 118 131 106 83 71 64 59 56 56 45 36
258 253 156 220 227 243 223 205 223 249 227 98 47 319 305 281 250 281 300 140 144 86 71 58 9 42 336 325 68 137 161 130 119 115 111 104 2 308 352 103 107 105 124 122 51 64 95 95 99 89 79 79 63 60
242 174 171 228 193 243 250 170 198 223 50 200 196 287 294 281 267 277 175 131 134 177 209 202 197 150 78 64 62 344 334 236 157 141 149 187 220 225 161 140 146 148 133 119 115 96 67 75 66 63 80 73 71 76
116 128 276 211 252 245 217 190 104 108 110 232 248 183 285 301 319 290 214 213 191 181 165 227 200 166 133 176 169 169 203 266 241 212 208 148 156 179 187 164 155 144 139 140 141 138 140 117 132 121 108 102 98 94
175 203 194 266 284 316 74 77 65 82 149 176 259 301 272 352 338 295 310 132 137 177 214 195 216 260 203 193 86 40 117 124 127 116 144 160 180 190 175 125 121 132 143 174 178 177 150 141 138 148 141 134 125 115
348 301 223 290 329 208 321 105 99 50 98 144 267 250 239 169 248 299 321 41 262 185 184 208 196 151 144 123 141 131 110 96 72 71 102 109 146 160 159 164 186 185 135 127 121 121 137 138 155 150 151 146 116 108